Year,Month,Day,Hour,Minute,Value (Times are PST for temperature in C)
2009,06,30,00,00,10.60
2009,06,30,00,01,10.50
2009,06,30,00,02,10.50
2009,06,30,00,03,10.50
2009,06,30,00,04,10.50
2009,06,30,00,05,10.50
2009,06,30,00,06,10.50
2009,06,30,00,07,10.50
2009,06,30,00,08,10.50
2009,06,30,00,09,10.50
2009,06,30,00,10,10.40
2009,06,30,00,11,10.40
2009,06,30,00,12,10.40
2009,06,30,00,13,10.40
2009,06,30,00,14,10.40
2009,06,30,00,15,10.40
2009,06,30,00,16,10.40
2009,06,30,00,17,10.30
2009,06,30,00,18,10.30
2009,06,30,00,19,10.30
2009,06,30,00,20,10.30
2009,06,30,00,21,10.30
2009,06,30,00,22,10.30
2009,06,30,00,23,10.30
2009,06,30,00,24,10.20
2009,06,30,00,25,10.20
2009,06,30,00,26,10.20
2009,06,30,00,27,10.20
2009,06,30,00,28,10.20
2009,06,30,00,29,10.10
2009,06,30,00,30,10.10
2009,06,30,00,31,10.10
2009,06,30,00,32,10.10
2009,06,30,00,33,10.10
2009,06,30,00,34,10.10
2009,06,30,00,35,10.10
2009,06,30,00,36,10.10
2009,06,30,00,37,10.00
2009,06,30,00,38,10.00
2009,06,30,00,39,10.00
2009,06,30,00,40,10.00
2009,06,30,00,41,10.00
2009,06,30,00,42,9.90
2009,06,30,00,43,9.90
2009,06,30,00,44,9.90
2009,06,30,00,45,9.90
2009,06,30,00,46,9.90
2009,06,30,00,47,9.90
2009,06,30,00,48,9.80
2009,06,30,00,49,9.80
2009,06,30,00,50,9.80
2009,06,30,00,51,9.80
2009,06,30,00,52,9.80
2009,06,30,00,53,9.70
2009,06,30,00,54,9.70
2009,06,30,00,55,9.70
2009,06,30,00,56,9.70
2009,06,30,00,57,9.60
2009,06,30,00,58,9.60
2009,06,30,00,59,9.60
2009,06,30,01,00,9.60
2009,06,30,01,01,9.60
2009,06,30,01,02,9.50
2009,06,30,01,03,9.50
2009,06,30,01,04,9.40
2009,06,30,01,05,9.40
2009,06,30,01,06,9.40
2009,06,30,01,07,9.40
2009,06,30,01,08,9.30
2009,06,30,01,09,9.30
2009,06,30,01,10,9.30
2009,06,30,01,11,9.20
2009,06,30,01,12,9.20
2009,06,30,01,13,9.20
2009,06,30,01,14,9.20
2009,06,30,01,15,9.10
2009,06,30,01,16,9.10
2009,06,30,01,17,9.10
2009,06,30,01,18,9.10
2009,06,30,01,19,9.00
2009,06,30,01,20,9.00
2009,06,30,01,21,9.00
2009,06,30,01,22,9.00
2009,06,30,01,23,9.00
2009,06,30,01,24,8.90
2009,06,30,01,25,8.90
2009,06,30,01,26,8.90
2009,06,30,01,27,8.90
2009,06,30,01,28,8.90
2009,06,30,01,29,8.90
2009,06,30,01,30,8.90
2009,06,30,01,31,8.90
2009,06,30,01,32,8.90
2009,06,30,01,33,8.90
2009,06,30,01,34,8.90
2009,06,30,01,35,8.80
2009,06,30,01,36,8.80
2009,06,30,01,37,8.80
2009,06,30,01,38,8.80
2009,06,30,01,39,8.80
2009,06,30,01,40,8.80
2009,06,30,01,41,8.80
2009,06,30,01,42,8.80
2009,06,30,01,43,8.80
2009,06,30,01,44,8.80
2009,06,30,01,45,8.80
2009,06,30,01,46,8.80
2009,06,30,01,47,8.70
2009,06,30,01,48,8.70
2009,06,30,01,49,8.70
2009,06,30,01,50,8.70
2009,06,30,01,51,8.70
2009,06,30,01,52,8.70
2009,06,30,01,53,8.60
2009,06,30,01,54,8.60
2009,06,30,01,55,8.60
2009,06,30,01,56,8.60
2009,06,30,01,57,8.60
2009,06,30,01,58,8.60
2009,06,30,01,59,8.50
2009,06,30,02,00,8.50
2009,06,30,02,01,8.50
2009,06,30,02,02,8.50
2009,06,30,02,03,8.40
2009,06,30,02,04,8.40
2009,06,30,02,05,8.40
2009,06,30,02,06,8.40
2009,06,30,02,07,8.40
2009,06,30,02,08,8.40
2009,06,30,02,09,8.40
2009,06,30,02,10,8.40
2009,06,30,02,11,8.40
2009,06,30,02,12,8.40
2009,06,30,02,13,8.30
2009,06,30,02,14,8.30
2009,06,30,02,15,8.30
2009,06,30,02,16,8.30
2009,06,30,02,17,8.30
2009,06,30,02,18,8.30
2009,06,30,02,19,8.30
2009,06,30,02,20,8.30
2009,06,30,02,21,8.30
2009,06,30,02,22,8.20
2009,06,30,02,23,8.20
2009,06,30,02,24,8.20
2009,06,30,02,25,8.20
2009,06,30,02,26,8.20
2009,06,30,02,27,8.20
2009,06,30,02,28,8.20
2009,06,30,02,29,8.20
2009,06,30,02,30,8.20
2009,06,30,02,31,8.10
2009,06,30,02,32,8.10
2009,06,30,02,33,8.10
2009,06,30,02,34,8.10
2009,06,30,02,35,8.10
2009,06,30,02,36,8.10
2009,06,30,02,37,8.10
2009,06,30,02,38,8.10
2009,06,30,02,39,8.10
2009,06,30,02,40,8.10
2009,06,30,02,41,8.00
2009,06,30,02,42,8.00
2009,06,30,02,43,8.00
2009,06,30,02,44,8.00
2009,06,30,02,45,7.90
2009,06,30,02,46,7.90
2009,06,30,02,47,7.90
2009,06,30,02,48,7.90
2009,06,30,02,49,7.90
2009,06,30,02,50,7.80
2009,06,30,02,51,7.80
2009,06,30,02,52,7.80
2009,06,30,02,53,7.80
2009,06,30,02,54,7.80
2009,06,30,02,55,7.80
2009,06,30,02,56,7.80
2009,06,30,02,57,7.80
2009,06,30,02,58,7.80
2009,06,30,02,59,7.80
2009,06,30,03,00,7.80
2009,06,30,03,01,7.70
2009,06,30,03,02,7.80
2009,06,30,03,03,7.70
2009,06,30,03,04,7.70
2009,06,30,03,05,7.70
2009,06,30,03,06,7.70
2009,06,30,03,07,7.70
2009,06,30,03,08,7.70
2009,06,30,03,09,7.70
2009,06,30,03,10,7.70
2009,06,30,03,11,7.70
2009,06,30,03,12,7.70
2009,06,30,03,13,7.70
2009,06,30,03,14,7.70
2009,06,30,03,15,7.70
2009,06,30,03,16,7.70
2009,06,30,03,17,7.70
2009,06,30,03,18,7.70
2009,06,30,03,19,7.70
2009,06,30,03,20,7.70
2009,06,30,03,21,7.70
2009,06,30,03,22,7.60
2009,06,30,03,23,7.60
2009,06,30,03,24,7.60
2009,06,30,03,25,7.60
2009,06,30,03,26,7.60
2009,06,30,03,27,7.60
2009,06,30,03,28,7.60
2009,06,30,03,29,7.60
2009,06,30,03,30,7.60
2009,06,30,03,31,7.60
2009,06,30,03,32,7.60
2009,06,30,03,33,7.60
2009,06,30,03,34,7.50
2009,06,30,03,35,7.50
2009,06,30,03,36,7.50
2009,06,30,03,37,7.50
2009,06,30,03,38,7.50
2009,06,30,03,39,7.50
2009,06,30,03,40,7.40
2009,06,30,03,41,7.40
2009,06,30,03,42,7.40
2009,06,30,03,43,7.40
2009,06,30,03,44,7.40
2009,06,30,03,45,7.40
2009,06,30,03,46,7.40
2009,06,30,03,47,7.30
2009,06,30,03,48,7.30
2009,06,30,03,49,7.30
2009,06,30,03,50,7.30
2009,06,30,03,51,7.30
2009,06,30,03,52,7.30
2009,06,30,03,53,7.30
2009,06,30,03,54,7.20
2009,06,30,03,55,7.20
2009,06,30,03,56,7.20
2009,06,30,03,57,7.20
2009,06,30,03,58,7.20
2009,06,30,03,59,7.20
2009,06,30,04,00,7.20
2009,06,30,04,01,7.20
2009,06,30,04,02,7.20
2009,06,30,04,03,7.20
2009,06,30,04,04,7.10
2009,06,30,04,05,7.10
2009,06,30,04,06,7.10
2009,06,30,04,07,7.10
2009,06,30,04,08,7.10
2009,06,30,04,09,7.10
2009,06,30,04,10,7.10
2009,06,30,04,11,7.10
2009,06,30,04,12,7.10
2009,06,30,04,13,7.10
2009,06,30,04,14,7.10
2009,06,30,04,15,7.10
2009,06,30,04,16,7.00
2009,06,30,04,17,7.00
2009,06,30,04,18,7.00
2009,06,30,04,19,7.00
2009,06,30,04,20,7.00
2009,06,30,04,21,7.00
2009,06,30,04,22,6.90
2009,06,30,04,23,6.90
2009,06,30,04,24,6.90
2009,06,30,04,25,6.90
2009,06,30,04,26,6.90
2009,06,30,04,27,6.90
2009,06,30,04,28,6.90
2009,06,30,04,29,6.80
2009,06,30,04,30,6.80
2009,06,30,04,31,6.80
2009,06,30,04,32,6.80
2009,06,30,04,33,6.80
2009,06,30,04,34,6.80
2009,06,30,04,35,6.80
2009,06,30,04,36,6.80
2009,06,30,04,37,6.80
2009,06,30,04,38,6.80
2009,06,30,04,39,6.80
2009,06,30,04,40,6.80
2009,06,30,04,41,6.80
2009,06,30,04,42,6.80
2009,06,30,04,43,6.80
2009,06,30,04,44,6.80
2009,06,30,04,45,6.80
2009,06,30,04,46,6.80
2009,06,30,04,47,6.80
2009,06,30,04,48,6.80
2009,06,30,04,49,6.80
2009,06,30,04,50,6.80
2009,06,30,04,51,6.80
2009,06,30,04,52,6.80
2009,06,30,04,53,6.80
2009,06,30,04,54,6.80
2009,06,30,04,55,6.80
2009,06,30,04,56,6.70
2009,06,30,04,57,6.70
2009,06,30,04,58,6.70
2009,06,30,04,59,6.70
2009,06,30,05,00,6.70
2009,06,30,05,01,6.70
2009,06,30,05,02,6.70
2009,06,30,05,03,6.70
2009,06,30,05,04,6.70
2009,06,30,05,05,6.60
2009,06,30,05,06,6.60
2009,06,30,05,07,6.60
2009,06,30,05,08,6.60
2009,06,30,05,09,6.60
2009,06,30,05,10,6.60
2009,06,30,05,11,6.50
2009,06,30,05,12,6.50
2009,06,30,05,13,6.50
2009,06,30,05,14,6.50
2009,06,30,05,15,6.50
2009,06,30,05,16,6.40
2009,06,30,05,17,6.40
2009,06,30,05,18,6.40
2009,06,30,05,19,6.40
2009,06,30,05,20,6.40
2009,06,30,05,21,6.40
2009,06,30,05,22,6.40
2009,06,30,05,23,6.40
2009,06,30,05,24,6.40
2009,06,30,05,25,6.40
2009,06,30,05,26,6.40
2009,06,30,05,27,6.40
2009,06,30,05,28,6.40
2009,06,30,05,29,6.40
2009,06,30,05,30,6.40
2009,06,30,05,31,6.40
2009,06,30,05,32,6.40
2009,06,30,05,33,6.40
2009,06,30,05,34,6.30
2009,06,30,05,35,6.30
2009,06,30,05,36,6.30
2009,06,30,05,37,6.30
2009,06,30,05,38,6.30
2009,06,30,05,39,6.30
2009,06,30,05,40,6.30
2009,06,30,05,41,6.30
2009,06,30,05,42,6.30
2009,06,30,05,43,6.20
2009,06,30,05,44,6.20
2009,06,30,05,45,6.20
2009,06,30,05,46,6.20
2009,06,30,05,47,6.20
2009,06,30,05,48,6.20
2009,06,30,05,49,6.20
2009,06,30,05,50,6.20
2009,06,30,05,51,6.20
2009,06,30,05,52,6.20
2009,06,30,05,53,6.20
2009,06,30,05,54,6.20
2009,06,30,05,55,6.20
2009,06,30,05,56,6.30
2009,06,30,05,57,6.30
2009,06,30,05,58,6.30
2009,06,30,05,59,6.30
2009,06,30,06,00,6.30
2009,06,30,06,01,6.30
2009,06,30,06,02,6.30
2009,06,30,06,03,6.30
2009,06,30,06,04,6.30
2009,06,30,06,05,6.30
2009,06,30,06,06,6.30
2009,06,30,06,07,6.30
2009,06,30,06,08,6.30
2009,06,30,06,09,6.30
2009,06,30,06,10,6.30
2009,06,30,06,11,6.30
2009,06,30,06,12,6.30
2009,06,30,06,13,6.30
2009,06,30,06,14,6.30
2009,06,30,06,15,6.30
2009,06,30,06,16,6.30
2009,06,30,06,17,6.40
2009,06,30,06,18,6.40
2009,06,30,06,19,6.40
2009,06,30,06,20,6.40
2009,06,30,06,21,6.40
2009,06,30,06,22,6.50
2009,06,30,06,23,6.50
2009,06,30,06,24,6.50
2009,06,30,06,25,6.60
2009,06,30,06,26,6.60
2009,06,30,06,27,6.60
2009,06,30,06,28,6.60
2009,06,30,06,29,6.60
2009,06,30,06,30,6.60
2009,06,30,06,31,6.70
2009,06,30,06,32,6.70
2009,06,30,06,33,6.70
2009,06,30,06,34,6.70
2009,06,30,06,35,6.70
2009,06,30,06,36,6.70
2009,06,30,06,37,6.70
2009,06,30,06,38,6.70
2009,06,30,06,39,6.70
2009,06,30,06,40,6.70
2009,06,30,06,41,6.70
2009,06,30,06,42,6.70
2009,06,30,06,43,6.80
2009,06,30,06,44,6.80
2009,06,30,06,45,6.80
2009,06,30,06,46,6.80
2009,06,30,06,47,6.90
2009,06,30,06,48,6.90
2009,06,30,06,49,6.90
2009,06,30,06,50,6.90
2009,06,30,06,51,6.90
2009,06,30,06,52,7.00
2009,06,30,06,53,7.00
2009,06,30,06,54,7.00
2009,06,30,06,55,7.10
2009,06,30,06,56,7.10
2009,06,30,06,57,7.20
2009,06,30,06,58,7.20
2009,06,30,06,59,7.20
2009,06,30,07,00,7.30
2009,06,30,07,01,7.30
2009,06,30,07,02,7.30
2009,06,30,07,03,7.40
2009,06,30,07,04,7.40
2009,06,30,07,05,7.50
2009,06,30,07,06,7.50
2009,06,30,07,07,7.60
2009,06,30,07,08,7.60
2009,06,30,07,09,7.60
2009,06,30,07,10,7.70
2009,06,30,07,11,7.70
2009,06,30,07,12,7.70
2009,06,30,07,13,7.80
2009,06,30,07,14,7.80
2009,06,30,07,15,7.80
2009,06,30,07,16,7.90
2009,06,30,07,17,7.90
2009,06,30,07,18,8.00
2009,06,30,07,19,8.00
2009,06,30,07,20,8.10
2009,06,30,07,21,8.20
2009,06,30,07,22,8.20
2009,06,30,07,23,8.30
2009,06,30,07,24,8.30
2009,06,30,07,25,8.40
2009,06,30,07,26,8.40
2009,06,30,07,27,8.50
2009,06,30,07,28,8.50
2009,06,30,07,29,8.60
2009,06,30,07,30,8.60
2009,06,30,07,31,8.70
2009,06,30,07,32,8.70
2009,06,30,07,33,8.70
2009,06,30,07,34,8.80
2009,06,30,07,35,8.80
2009,06,30,07,36,8.90
2009,06,30,07,37,8.90
2009,06,30,07,38,9.00
2009,06,30,07,39,9.10
2009,06,30,07,40,9.10
2009,06,30,07,41,9.20
2009,06,30,07,42,9.20
2009,06,30,07,43,9.30
2009,06,30,07,44,9.40
2009,06,30,07,45,9.50
2009,06,30,07,46,9.60
2009,06,30,07,47,9.70
2009,06,30,07,48,9.80
2009,06,30,07,49,9.90
2009,06,30,07,50,10.00
2009,06,30,07,51,10.10
2009,06,30,07,52,10.20
2009,06,30,07,53,10.30
2009,06,30,07,54,10.40
2009,06,30,07,55,10.50
2009,06,30,07,56,10.50
2009,06,30,07,57,10.60
2009,06,30,07,58,10.70
2009,06,30,07,59,10.80
2009,06,30,08,00,10.80
2009,06,30,08,01,10.90
2009,06,30,08,02,11.00
2009,06,30,08,03,11.10
2009,06,30,08,04,11.20
2009,06,30,08,05,11.20
2009,06,30,08,06,11.30
2009,06,30,08,07,11.40
2009,06,30,08,08,11.50
2009,06,30,08,09,11.50
2009,06,30,08,10,11.60
2009,06,30,08,11,11.80
2009,06,30,08,12,11.90
2009,06,30,08,13,12.00
2009,06,30,08,14,12.10
2009,06,30,08,15,12.20
2009,06,30,08,16,12.30
2009,06,30,08,17,12.40
2009,06,30,08,18,12.50
2009,06,30,08,19,12.70
2009,06,30,08,20,12.80
2009,06,30,08,21,12.90
2009,06,30,08,22,13.00
2009,06,30,08,23,13.10
2009,06,30,08,24,13.20
2009,06,30,08,25,13.30
2009,06,30,08,26,13.40
2009,06,30,08,27,13.40
2009,06,30,08,28,13.50
2009,06,30,08,29,13.60
2009,06,30,08,30,13.60
2009,06,30,08,31,13.70
2009,06,30,08,32,13.80
2009,06,30,08,33,13.90
2009,06,30,08,34,13.90
2009,06,30,08,35,14.00
2009,06,30,08,36,14.10
2009,06,30,08,37,14.10
2009,06,30,08,38,14.20
2009,06,30,08,39,14.20
2009,06,30,08,40,14.30
2009,06,30,08,41,14.30
2009,06,30,08,42,14.40
2009,06,30,08,43,14.50
2009,06,30,08,44,14.50
2009,06,30,08,45,14.60
2009,06,30,08,46,14.70
2009,06,30,08,47,14.70
2009,06,30,08,48,14.80
2009,06,30,08,49,14.90
2009,06,30,08,50,15.00
2009,06,30,08,51,15.00
2009,06,30,08,52,15.00
2009,06,30,08,53,15.00
2009,06,30,08,54,15.00
2009,06,30,08,55,15.00
2009,06,30,08,56,15.10
2009,06,30,08,57,15.30
2009,06,30,08,58,15.30
2009,06,30,08,59,15.40
2009,06,30,09,00,15.50
2009,06,30,09,01,15.60
2009,06,30,09,02,15.60
2009,06,30,09,03,15.60
2009,06,30,09,04,15.60
2009,06,30,09,05,15.60
2009,06,30,09,06,15.50
2009,06,30,09,07,15.50
2009,06,30,09,08,15.50
2009,06,30,09,09,15.50
2009,06,30,09,10,15.50
2009,06,30,09,11,15.60
2009,06,30,09,12,15.60
2009,06,30,09,13,15.60
2009,06,30,09,14,15.60
2009,06,30,09,15,15.60
2009,06,30,09,16,15.60
2009,06,30,09,17,15.60
2009,06,30,09,18,15.60
2009,06,30,09,19,15.50
2009,06,30,09,20,15.50
2009,06,30,09,21,15.60
2009,06,30,09,22,15.60
2009,06,30,09,23,15.70
2009,06,30,09,24,15.70
2009,06,30,09,25,15.80
2009,06,30,09,26,15.90
2009,06,30,09,27,16.00
2009,06,30,09,28,16.10
2009,06,30,09,29,16.10
2009,06,30,09,30,16.20
2009,06,30,09,31,16.20
2009,06,30,09,32,16.20
2009,06,30,09,33,16.30
2009,06,30,09,34,16.30
2009,06,30,09,35,16.40
2009,06,30,09,36,16.50
2009,06,30,09,37,16.60
2009,06,30,09,38,16.60
2009,06,30,09,39,16.70
2009,06,30,09,40,16.70
2009,06,30,09,41,16.70
2009,06,30,09,42,16.70
2009,06,30,09,43,16.80
2009,06,30,09,44,16.80
2009,06,30,09,45,16.80
2009,06,30,09,46,16.80
2009,06,30,09,47,16.80
2009,06,30,09,48,16.80
2009,06,30,09,49,16.90
2009,06,30,09,50,16.80
2009,06,30,09,51,16.80
2009,06,30,09,52,16.80
2009,06,30,09,53,16.80
2009,06,30,09,54,16.90
2009,06,30,09,55,16.90
2009,06,30,09,56,17.00
2009,06,30,09,57,17.00
2009,06,30,09,58,17.10
2009,06,30,09,59,17.10
2009,06,30,10,00,17.20
2009,06,30,10,01,17.20
2009,06,30,10,02,17.20
2009,06,30,10,03,17.30
2009,06,30,10,04,17.30
2009,06,30,10,05,17.40
2009,06,30,10,06,17.40
2009,06,30,10,07,17.50
2009,06,30,10,08,17.50
2009,06,30,10,09,17.60
2009,06,30,10,10,17.60
2009,06,30,10,11,17.60
2009,06,30,10,12,17.60
2009,06,30,10,13,17.70
2009,06,30,10,14,17.70
2009,06,30,10,15,17.70
2009,06,30,10,16,17.70
2009,06,30,10,17,17.70
2009,06,30,10,18,17.70
2009,06,30,10,19,17.70
2009,06,30,10,20,17.70
2009,06,30,10,21,17.70
2009,06,30,10,22,17.60
2009,06,30,10,23,17.60
2009,06,30,10,24,17.60
2009,06,30,10,25,17.60
2009,06,30,10,26,17.70
2009,06,30,10,27,17.70
2009,06,30,10,28,17.80
2009,06,30,10,29,17.80
2009,06,30,10,30,17.90
2009,06,30,10,31,18.00
2009,06,30,10,32,18.00
2009,06,30,10,33,18.10
2009,06,30,10,34,18.10
2009,06,30,10,35,18.20
2009,06,30,10,36,18.20
2009,06,30,10,37,18.30
2009,06,30,10,38,18.40
2009,06,30,10,39,18.50
2009,06,30,10,40,18.60
2009,06,30,10,41,18.70
2009,06,30,10,42,18.70
2009,06,30,10,43,18.70
2009,06,30,10,44,18.60
2009,06,30,10,45,18.60
2009,06,30,10,46,18.50
2009,06,30,10,47,18.40
2009,06,30,10,48,18.30
2009,06,30,10,49,18.20
2009,06,30,10,50,18.20
2009,06,30,10,51,18.10
2009,06,30,10,52,18.10
2009,06,30,10,53,18.00
2009,06,30,10,54,18.00
2009,06,30,10,55,18.00
2009,06,30,10,56,18.10
2009,06,30,10,57,18.10
2009,06,30,10,58,18.20
2009,06,30,10,59,18.20
2009,06,30,11,00,18.20
2009,06,30,11,01,18.20
2009,06,30,11,02,18.10
2009,06,30,11,03,18.10
2009,06,30,11,04,18.10
2009,06,30,11,05,18.10
2009,06,30,11,06,18.10
2009,06,30,11,07,18.20
2009,06,30,11,08,18.20
2009,06,30,11,09,18.20
2009,06,30,11,10,18.20
2009,06,30,11,11,18.30
2009,06,30,11,12,18.30
2009,06,30,11,13,18.40
2009,06,30,11,14,18.40
2009,06,30,11,15,18.40
2009,06,30,11,16,18.50
2009,06,30,11,17,18.50
2009,06,30,11,18,18.60
2009,06,30,11,19,18.70
2009,06,30,11,20,18.80
2009,06,30,11,21,18.80
2009,06,30,11,22,18.80
2009,06,30,11,23,18.80
2009,06,30,11,24,18.80
2009,06,30,11,25,18.80
2009,06,30,11,26,18.80
2009,06,30,11,27,18.80
2009,06,30,11,28,18.80
2009,06,30,11,29,18.90
2009,06,30,11,30,18.90
2009,06,30,11,31,19.00
2009,06,30,11,32,19.00
2009,06,30,11,33,19.00
2009,06,30,11,34,19.00
2009,06,30,11,35,19.00
2009,06,30,11,36,19.10
2009,06,30,11,37,19.10
2009,06,30,11,38,19.10
2009,06,30,11,39,19.10
2009,06,30,11,40,19.10
2009,06,30,11,41,19.10
2009,06,30,11,42,19.10
2009,06,30,11,43,19.10
2009,06,30,11,44,19.20
2009,06,30,11,45,19.20
2009,06,30,11,46,19.20
2009,06,30,11,47,19.20
2009,06,30,11,48,19.10
2009,06,30,11,49,19.10
2009,06,30,11,50,19.10
2009,06,30,11,51,19.10
2009,06,30,11,52,19.10
2009,06,30,11,53,19.10
2009,06,30,11,54,19.10
2009,06,30,11,55,19.20
2009,06,30,11,56,19.20
2009,06,30,11,57,19.20
2009,06,30,11,58,19.30
2009,06,30,11,59,19.40
2009,06,30,12,00,19.50
2009,06,30,12,01,19.50
2009,06,30,12,02,19.60
2009,06,30,12,03,19.60
2009,06,30,12,04,19.60
2009,06,30,12,05,19.60
2009,06,30,12,06,19.60
2009,06,30,12,07,19.60
2009,06,30,12,08,19.60
2009,06,30,12,09,19.60
2009,06,30,12,10,19.60
2009,06,30,12,11,19.70
2009,06,30,12,12,19.70
2009,06,30,12,13,19.80
2009,06,30,12,14,19.80
2009,06,30,12,15,19.90
2009,06,30,12,16,19.90
2009,06,30,12,17,19.90
2009,06,30,12,18,19.90
2009,06,30,12,19,19.90
2009,06,30,12,20,19.80
2009,06,30,12,21,19.70
2009,06,30,12,22,19.60
2009,06,30,12,23,19.60
2009,06,30,12,24,19.70
2009,06,30,12,25,19.70
2009,06,30,12,26,19.80
2009,06,30,12,27,19.80
2009,06,30,12,28,19.90
2009,06,30,12,29,19.90
2009,06,30,12,30,19.90
2009,06,30,12,31,19.90
2009,06,30,12,32,19.90
2009,06,30,12,33,19.90
2009,06,30,12,34,19.90
2009,06,30,12,35,19.90
2009,06,30,12,36,20.00
2009,06,30,12,37,20.10
2009,06,30,12,38,20.20
2009,06,30,12,39,20.30
2009,06,30,12,40,20.40
2009,06,30,12,41,20.40
2009,06,30,12,42,20.40
2009,06,30,12,43,20.50
2009,06,30,12,44,20.50
2009,06,30,12,45,20.40
2009,06,30,12,46,20.40
2009,06,30,12,47,20.50
2009,06,30,12,48,20.50
2009,06,30,12,49,20.60
2009,06,30,12,50,20.60
2009,06,30,12,51,20.60
2009,06,30,12,52,20.60
2009,06,30,12,53,20.60
2009,06,30,12,54,20.60
2009,06,30,12,55,20.60
2009,06,30,12,56,20.60
2009,06,30,12,57,20.70
2009,06,30,12,58,20.70
2009,06,30,12,59,20.60
2009,06,30,13,00,20.50
2009,06,30,13,01,20.40
2009,06,30,13,02,20.40
2009,06,30,13,03,20.30
2009,06,30,13,04,20.30
2009,06,30,13,05,20.30
2009,06,30,13,06,20.40
2009,06,30,13,07,20.40
2009,06,30,13,08,20.40
2009,06,30,13,09,20.40
2009,06,30,13,10,20.40
2009,06,30,13,11,20.50
2009,06,30,13,12,20.50
2009,06,30,13,13,20.50
2009,06,30,13,14,20.50
2009,06,30,13,15,20.40
2009,06,30,13,16,20.50
2009,06,30,13,17,20.50
2009,06,30,13,18,20.50
2009,06,30,13,19,20.50
2009,06,30,13,20,20.60
2009,06,30,13,21,20.60
2009,06,30,13,22,20.60
2009,06,30,13,23,20.70
2009,06,30,13,24,20.80
2009,06,30,13,25,20.80
2009,06,30,13,26,20.80
2009,06,30,13,27,20.90
2009,06,30,13,28,20.90
2009,06,30,13,29,20.80
2009,06,30,13,30,20.80
2009,06,30,13,31,20.90
2009,06,30,13,32,20.90
2009,06,30,13,33,20.90
2009,06,30,13,34,21.00
2009,06,30,13,35,21.10
2009,06,30,13,36,21.00
2009,06,30,13,37,20.90
2009,06,30,13,38,20.90
2009,06,30,13,39,20.80
2009,06,30,13,40,20.70
2009,06,30,13,41,20.60
2009,06,30,13,42,20.60
2009,06,30,13,43,20.60
2009,06,30,13,44,20.60
2009,06,30,13,45,20.60
2009,06,30,13,46,20.50
2009,06,30,13,47,20.50
2009,06,30,13,48,20.40
2009,06,30,13,49,20.50
2009,06,30,13,50,20.60
2009,06,30,13,51,20.70
2009,06,30,13,52,20.70
2009,06,30,13,53,20.70
2009,06,30,13,54,20.70
2009,06,30,13,55,20.70
2009,06,30,13,56,20.70
2009,06,30,13,57,20.70
2009,06,30,13,58,20.70
2009,06,30,13,59,20.80
2009,06,30,14,00,20.80
2009,06,30,14,01,20.80
2009,06,30,14,02,20.80
2009,06,30,14,03,20.80
2009,06,30,14,04,20.80
2009,06,30,14,05,20.80
2009,06,30,14,06,20.80
2009,06,30,14,07,20.80
2009,06,30,14,08,20.80
2009,06,30,14,09,20.80
2009,06,30,14,10,20.80
2009,06,30,14,11,20.80
2009,06,30,14,12,20.80
2009,06,30,14,13,20.80
2009,06,30,14,14,20.80
2009,06,30,14,15,20.80
2009,06,30,14,16,20.90
2009,06,30,14,17,21.00
2009,06,30,14,18,21.10
2009,06,30,14,19,21.20
2009,06,30,14,20,21.30
2009,06,30,14,21,21.30
2009,06,30,14,22,21.40
2009,06,30,14,23,21.50
2009,06,30,14,24,21.50
2009,06,30,14,25,21.50
2009,06,30,14,26,21.50
2009,06,30,14,27,21.40
2009,06,30,14,28,21.40
2009,06,30,14,29,21.40
2009,06,30,14,30,21.50
2009,06,30,14,31,21.50
2009,06,30,14,32,21.60
2009,06,30,14,33,21.60
2009,06,30,14,34,21.60
2009,06,30,14,35,21.60
2009,06,30,14,36,21.60
2009,06,30,14,37,21.60
2009,06,30,14,38,21.60
2009,06,30,14,39,21.60
2009,06,30,14,40,21.70
2009,06,30,14,41,21.70
2009,06,30,14,42,21.70
2009,06,30,14,43,21.80
2009,06,30,14,44,21.60
2009,06,30,14,45,21.50
2009,06,30,14,46,21.50
2009,06,30,14,47,21.50
2009,06,30,14,48,21.50
2009,06,30,14,49,21.40
2009,06,30,14,50,21.40
2009,06,30,14,51,21.50
2009,06,30,14,52,21.40
2009,06,30,14,53,21.50
2009,06,30,14,54,21.50
2009,06,30,14,55,21.40
2009,06,30,14,56,21.40
2009,06,30,14,57,21.40
2009,06,30,14,58,21.40
2009,06,30,14,59,21.50
2009,06,30,15,00,21.50
2009,06,30,15,01,21.60
2009,06,30,15,02,21.50
2009,06,30,15,03,21.60
2009,06,30,15,04,21.60
2009,06,30,15,05,21.60
2009,06,30,15,06,21.60
2009,06,30,15,07,21.60
2009,06,30,15,08,21.60
2009,06,30,15,09,21.60
2009,06,30,15,10,21.60
2009,06,30,15,11,21.50
2009,06,30,15,12,21.50
2009,06,30,15,13,21.40
2009,06,30,15,14,21.40
2009,06,30,15,15,21.50
2009,06,30,15,16,21.50
2009,06,30,15,17,21.50
2009,06,30,15,18,21.60
2009,06,30,15,19,21.60
2009,06,30,15,20,21.60
2009,06,30,15,21,21.70
2009,06,30,15,22,21.70
2009,06,30,15,23,21.70
2009,06,30,15,24,21.70
2009,06,30,15,25,21.70
2009,06,30,15,26,21.70
2009,06,30,15,27,21.70
2009,06,30,15,28,21.60
2009,06,30,15,29,21.60
2009,06,30,15,30,21.50
2009,06,30,15,31,21.50
2009,06,30,15,32,21.40
2009,06,30,15,33,21.30
2009,06,30,15,34,21.30
2009,06,30,15,35,21.30
2009,06,30,15,36,21.20
2009,06,30,15,37,21.10
2009,06,30,15,38,21.10
2009,06,30,15,39,21.00
2009,06,30,15,40,21.00
2009,06,30,15,41,21.10
2009,06,30,15,42,21.10
2009,06,30,15,43,21.10
2009,06,30,15,44,21.10
2009,06,30,15,45,21.10
2009,06,30,15,46,21.00
2009,06,30,15,47,21.00
2009,06,30,15,48,21.00
2009,06,30,15,49,21.00
2009,06,30,15,50,20.90
2009,06,30,15,51,21.00
2009,06,30,15,52,21.00
2009,06,30,15,53,20.90
2009,06,30,15,54,20.90
2009,06,30,15,55,21.00
2009,06,30,15,56,21.00
2009,06,30,15,57,21.00
2009,06,30,15,58,21.10
2009,06,30,15,59,21.10
2009,06,30,16,00,21.00
2009,06,30,16,01,21.00
2009,06,30,16,02,21.00
2009,06,30,16,03,21.00
2009,06,30,16,04,20.90
2009,06,30,16,05,20.90
2009,06,30,16,06,21.00
2009,06,30,16,07,21.00
2009,06,30,16,08,21.00
2009,06,30,16,09,21.00
2009,06,30,16,10,21.00
2009,06,30,16,11,21.10
2009,06,30,16,12,21.20
2009,06,30,16,13,21.20
2009,06,30,16,14,21.30
2009,06,30,16,15,21.30
2009,06,30,16,16,21.40
2009,06,30,16,17,21.50
2009,06,30,16,18,21.50
2009,06,30,16,19,21.60
2009,06,30,16,20,21.70
2009,06,30,16,21,21.70
2009,06,30,16,22,21.80
2009,06,30,16,23,21.80
2009,06,30,16,24,21.80
2009,06,30,16,25,21.80
2009,06,30,16,26,21.80
2009,06,30,16,27,21.80
2009,06,30,16,28,21.80
2009,06,30,16,29,21.90
2009,06,30,16,30,21.90
2009,06,30,16,31,22.00
2009,06,30,16,32,22.00
2009,06,30,16,33,22.00
2009,06,30,16,34,22.00
2009,06,30,16,35,21.90
2009,06,30,16,36,21.90
2009,06,30,16,37,21.90
2009,06,30,16,38,22.00
2009,06,30,16,39,22.00
2009,06,30,16,40,21.90
2009,06,30,16,41,21.80
2009,06,30,16,42,21.80
2009,06,30,16,43,21.70
2009,06,30,16,44,21.60
2009,06,30,16,45,21.60
2009,06,30,16,46,21.60
2009,06,30,16,47,21.60
2009,06,30,16,48,21.60
2009,06,30,16,49,21.60
2009,06,30,16,50,21.70
2009,06,30,16,51,21.70
2009,06,30,16,52,21.70
2009,06,30,16,53,21.80
2009,06,30,16,54,21.70
2009,06,30,16,55,21.80
2009,06,30,16,56,21.70
2009,06,30,16,57,21.70
2009,06,30,16,58,21.70
2009,06,30,16,59,21.70
2009,06,30,17,00,21.80
2009,06,30,17,01,21.80
2009,06,30,17,02,21.80
2009,06,30,17,03,21.80
2009,06,30,17,04,21.80
2009,06,30,17,05,21.80
2009,06,30,17,06,21.80
2009,06,30,17,07,21.90
2009,06,30,17,08,21.90
2009,06,30,17,09,22.00
2009,06,30,17,10,22.00
2009,06,30,17,11,22.10
2009,06,30,17,12,22.20
2009,06,30,17,13,22.20
2009,06,30,17,14,22.20
2009,06,30,17,15,22.20
2009,06,30,17,16,22.30
2009,06,30,17,17,22.30
2009,06,30,17,18,22.30
2009,06,30,17,19,22.30
2009,06,30,17,20,22.40
2009,06,30,17,21,22.40
2009,06,30,17,22,22.50
2009,06,30,17,23,22.50
2009,06,30,17,24,22.50
2009,06,30,17,25,22.40
2009,06,30,17,26,22.40
2009,06,30,17,27,22.40
2009,06,30,17,28,22.40
2009,06,30,17,29,22.40
2009,06,30,17,30,22.40
2009,06,30,17,31,22.30
2009,06,30,17,32,22.30
2009,06,30,17,33,22.30
2009,06,30,17,34,22.30
2009,06,30,17,35,22.30
2009,06,30,17,36,22.40
2009,06,30,17,37,22.40
2009,06,30,17,38,22.30